This is the latest recevied weather packets stored in our database for station/object K5BOU. If no packets are shown the sender has not sent any weather packets the latest 10 day(s).
| Time | Temp. | Humidity | Pressure | Rain* | Wind** | Luminosity | Snow |
|---|---|---|---|---|---|---|---|
| 1777652864 | 17.22° C | 99% | 1008.9 hPa | 1.27 mm | - | 61 W/m² | - |
| 1777652561 | 17.22° C | 99% | 1009.3 hPa | 3.05 mm | - | 51 W/m² | - |
| 1777652258 | 17.22° C | 99% | 1009.6 hPa | 15.49 mm | - | 25 W/m² | - |
| 1777651955 | 17.22° C | 99% | 1009.5 hPa | 21.59 mm | - | 32 W/m² | - |
| 1777651652 | 17.22° C | 99% | 1009.1 hPa | 21.59 mm | - | 19 W/m² | - |
| 1777651349 | 17.22° C | 99% | 1009.3 hPa | 19.81 mm | - | 10 W/m² | - |
| 1777651046 | 17.22° C | 99% | 1010.2 hPa | 6.1 mm | - | 3 W/m² | - |
| 1777650743 | 17.22° C | 99% | 1010 hPa | 1.27 mm | - | 1 W/m² | - |
| 1777650440 | 17.22° C | 99% | 1010.4 hPa | 0 mm | - | 0 W/m² | - |
| 1777650137 | 17.22° C | 99% | 1010 hPa | 0 mm | - | 0 W/m² | - |
| 1777649834 | 17.22° C | 99% | 1009 hPa | 0 mm | - | 8 W/m² | - |
| 1777649531 | 17.22° C | 99% | 1008.7 hPa | 0 mm | - | 9 W/m² | - |
| 1777649227 | 17.22° C | 99% | 1008.6 hPa | 0 mm | - | 20 W/m² | - |
| 1777648925 | 17.22° C | 99% | 1008.7 hPa | 0 mm | - | 24 W/m² | - |
| 1777648622 | 17.22° C | 99% | 1009.2 hPa | 0 mm | - | 12 W/m² | - |
| 1777648318 | 17.22° C | 99% | 1008.9 hPa | 0 mm | - | 32 W/m² | - |
| 1777648015 | 17.22° C | 99% | 1008.6 hPa | 0 mm | - | 26 W/m² | - |
| 1777647711 | 17.22° C | 99% | 1008.5 hPa | 0 mm | - | 74 W/m² | - |
| 1777647407 | 17.22° C | 99% | 1008.5 hPa | 0 mm | - | 147 W/m² | - |
| 1777647105 | 17.22° C | 99% | 1008.5 hPa | 0 mm | - | 114 W/m² | - |
| 1777646801 | 17.22° C | 99% | 1008.5 hPa | 0 mm | - | 79 W/m² | - |
| 1777646496 | 17.22° C | 99% | 1008.7 hPa | 0 mm | - | 92 W/m² | - |
| 1777646193 | 17.22° C | 99% | 1009 hPa | 0 mm | - | 97 W/m² | - |
| 1777645891 | 17.22° C | 99% | 1009.1 hPa | 0 mm | - | 105 W/m² | - |
| 1777645587 | 17.22° C | 99% | 1009.4 hPa | 1.78 mm | - | 93 W/m² | - |
* Rain latest hour (hover to see other rain measurements)
** Current wind speed in m/s (hover to see current wind gust speed)